CAPE
29 127 77 199 543 810 464 297 419 674 728 512 79 0 0 0 0 0 0 0 0 2 2 2 2 2 2 1 0 0 0 0 0 0 0 0 0 0 0 0 0 0 0
36 131 141 494 985 705 386 565 826 577 185 14 0 0 0 0 0 1 1 3 2 4 2 2 2 2 2 1 0 0 0 0 0 0 0 0 0 0 0 0 0 0 0
6 75 270 934 852 590 640 623 332 102 0 0 0 0 0 0 1 3 3 2 2 2 2 2 2 1 1 0 0 0 0 0 0 0 0 0 0 0 35 42 0 0 0
8 267 821 857 685 700 609 396 82 0 0 0 0 0 0 1 1 1 3 2 1 0 0 0 0 1 0 0 0 0 0 0 0 0 0 0 4 52 23 35 56 38 35
48 802 1012 827 689 510 313 95 0 0 0 0 0 0 1 1 0 1 1 0 0 0 0 0 0 0 0 0 0 0 0 0 0 0 11 16 22 25 17 27 22 31 47
677 915 853 610 437 305 141 0 0 0 0 0 0 0 0 0 0 0 0 0 0 0 0 0 0 0 0 0 0 0 0 0 0 0 1 6 8 16 12 6 0 4 8
793 695 542 453 274 137 0 0 0 0 0 0 0 0 0 0 0 0 0 0 0 0 0 0 0 0 0 0 0 0 0 0 0 0 2 17 27 8 4 11 20 8 5
707 536 415 300 172 24 0 0 0 0 0 0 0 0 0 0 0 0 0 0 0 0 0 0 0 0 0 0 0 0 0 0 0 0 4 9 11 6 5 13 22 29 15
602 367 361 195 34 0 0 0 0 0 0 0 0 0 0 0 0 0 0 0 0 0 0 0 0 0 0 0 0 0 0 0 0 1 9 8 12 8 11 11 36 51 34
455 339 118 7 0 0 0 0 0 0 0 0 0 0 0 0 0 0 0 0 0 0 0 0 0 0 0 0 0 0 0 0 0 5 25 5 11 9 10 7 9 22 20
289 133 7 0 0 0 0 0 0 0 0 0 0 0 0 0 0 0 0 0 0 0 0 0 0 0 0 0 0 0 0 0 0 3 9 1 3 6 10 2 9 5 7
89 2 0 0 0 0 0 0 0 0 0 0 0 0 0 0 0 0 0 0 0 0 0 0 0 0 0 0 0 0 0 0 0 0 0 0 3 7 6 5 7 6 5
0 0 0 0 0 0 0 0 0 0 0 0 0 0 0 0 0 0 0 0 0 0 0 0 0 0 0 0 0 0 0 0 0 0 0 0 1 4 5 6 5 6 5
1 0 0 0 0 0 0 0 0 0 0 0 0 0 0 0 0 0 0 0 0 0 0 0 0 0 0 0 0 0 0 0 0 0 0 0 0 2 7 3 3 5 5
2 0 0 0 0 0 0 0 0 0 0 0 0 0 0 0 0 0 0 0 0 0 0 0 0 0 0 0 0 0 0 0 0 0 0 0 0 0 2 2 2 1 2
4 0 0 0 0 0 0 0 0 0 0 0 0 0 0 0 0 0 0 0 0 0 0 0 0 0 0 0 0 0 0 0 0 0 0 0 0 0 0 0 0 0 0
0 0 0 0 0 0 0 0 0 0 0 0 0 0 0 0 0 0 0 0 0 0 0 0 0 0 0 0 0 0 0 0 0 0 0 0 0 0 0 0 0 0 0
1 0 0 0 0 0 0 0 0 0 0 0 0 0 0 0 0 0 0 0 0 0 0 0 0 0 0 0 0 0 0 0 0 0 0 0 0 0 0 0 0 0 0
0 0 0 0 0 0 0 0 0 0 0 0 0 0 0 0 0 0 0 0 0 0 0 0 0 0 0 0 0 0 0 0 0 0 0 0 0 0 0 0 0 0 0
0 0 0 0 0 0 0 0 0 0 0 0 0 0 0 0 0 0 0 0 0 0 0 0 0 0 0 0 0 0 0 0 0 0 0 0 0 0 0 0 0 0 0
0 0 0 0 0 0 0 0 0 0 0 0 0 0 0 0 0 0 0 0 0 0 0 0 0 0 0 0 0 0 0 0 0 0 0 0 0 0 0 0 0 0 0
0 2 1 0 0 0 0 0 0 0 0 0 0 0 0 0 0 0 0 0 0 0 0 0 0 0 0 0 0 0 0 0 0 0 0 0 0 0 0 0 0 0 0
0 0 0 0 0 0 0 0 0 0 0 0 0 0 0 0 0 0 0 0 0 0 0 0 0 0 0 0 0 0 0 0 0 0 0 0 0 0 0 0 0 0 0
0 0 1 0 0 0 0 0 0 0 0 0 0 0 0 0 0 0 0 0 0 0 0 0 0 0 0 0 0 0 0 0 0 0 0 0 0 0 0 0 0 0 0
8 1 1 3 0 0 0 0 0 0 0 0 0 0 0 0 0 0 0 0 0 0 0 0 0 0 0 0 0 0 0 0 0 0 0 0 0 0 0 0 0 0 0
2 3 0 1 0 0 1 0 0 0 0 0 0 0 0 0 0 0 0 0 0 0 0 0 0 0 0 0 0 0 0 0 0 0 0 0 0 0 0 0 0 0 0
CIN
-508 -363 -366 -221 -45 -0 -34 -78 -24 -3 -0 -30 -240 -0 -0 -0 -0 -0 -0 -0 -0 -0 -0 -0 -0 -0 -0 -0 -0 -0 -0 -0 -0 -0 -0 -0 -0 -0 -0 -0 -0 -0 -0
-576 -381 -323 -95 -0 -4 -56 -9 -0 -7 -141 -217 -0 -0 -0 -0 -0 -0 -0 -0 -0 -0 -0 -0 -0 -0 -0 -0 -0 -0 -0 -0 -0 -0 -0 -0 -0 -0 -0 -0 -0 -0 -0
-637 -449 -240 -19 -10 -23 -6 -4 -77 -223 -0 -0 -0 -0 -0 -0 -0 -0 -0 -0 -0 -0 -0 -0 -0 -0 -0 -0 -0 -0 -0 -0 -0 -0 -0 -0 -0 -0 -0 -0 -0 -0 -0
-612 -292 -76 -33 -33 -14 -15 -60 -266 -0 -0 -0 -0 -0 -0 -0 -0 -0 -0 -0 -0 -0 -0 -0 -0 -0 -0 -0 -0 -0 -0 -0 -0 -0 -0 -0 -4 -0 -1 -0 -0 -0 -0
-513 -97 -29 -36 -32 -61 -110 -264 -0 -0 -0 -0 -0 -0 -0 -0 -0 -0 -0 -0 -0 -0 -0 -0 -0 -0 -0 -0 -0 -0 -0 -0 -0 -0 -17 -9 -4 -0 -0 -0 -0 -0 -0
-164 -79 -38 -67 -99 -138 -245 -0 -0 -0 -0 -0 -0 -0 -0 -0 -0 -0 -0 -0 -0 -0 -0 -0 -0 -0 -0 -0 -0 -0 -0 -0 -0 -0 -8 -4 -7 -1 -0 -0 -0 -0 -0
-119 -101 -96 -108 -159 -248 -0 -0 -0 -0 -0 -0 -0 -0 -0 -0 -0 -0 -0 -0 -0 -0 -0 -0 -0 -0 -0 -0 -0 -0 -0 -0 -0 -0 -7 -7 -4 -0 -2 -2 -2 -0 -0
-122 -114 -120 -143 -213 -394 -0 -0 -0 -0 -0 -0 -0 -0 -0 -0 -0 -0 -0 -0 -0 -0 -0 -0 -0 -0 -0 -0 -0 -0 -0 -0 -0 -0 -13 -8 -1 -0 -0 -0 -0 -1 -0
-121 -142 -128 -198 -356 -0 -0 -0 -0 -0 -0 -0 -0 -0 -0 -0 -0 -0 -0 -0 -0 -0 -0 -0 -0 -0 -0 -0 -0 -0 -0 -0 -0 -3 -6 -4 -0 -0 -0 -0 -0 -1 -0
-135 -133 -237 -402 -0 -0 -0 -0 -0 -0 -0 -0 -0 -0 -0 -0 -0 -0 -0 -0 -0 -0 -0 -0 -0 -0 -0 -0 -0 -0 -0 -0 -0 -16 -10 -1 -0 -1 -0 -0 -1 -3 -4
-165 -247 -438 -0 -0 -0 -0 -0 -0 -0 -0 -0 -0 -0 -0 -0 -0 -0 -0 -0 -0 -0 -0 -0 -0 -0 -0 -0 -0 -0 -0 -0 -0 -20 -18 -1 -0 -1 -0 -1 -0 -1 -0
-269 -179 -0 -0 -0 -0 -0 -0 -0 -0 -0 -0 -0 -0 -0 -0 -0 -0 -0 -0 -0 -0 -0 -0 -0 -0 -0 -0 -0 -0 -0 -0 -0 -0 -0 -0 -0 -1 -0 -0 -0 -0 -0
-30 -0 -0 -0 -0 -0 -0 -0 -0 -0 -0 -0 -0 -0 -0 -0 -0 -0 -0 -0 -0 -0 -0 -0 -0 -0 -0 -0 -0 -0 -0 -0 -0 -0 -0 -0 -0 -0 -0 -0 -0 -0 -0
-0 -0 -0 -0 -0 -0 -0 -0 -0 -0 -0 -0 -0 -0 -0 -0 -0 -0 -0 -0 -0 -0 -0 -0 -0 -0 -0 -0 -0 -0 -0 -0 -0 -0 -0 -0 -0 -0 -0 -0 -0 -0 -1
-50 -0 -0 -0 -0 -0 -0 -0 -0 -0 -0 -0 -0 -0 -0 -0 -0 -0 -0 -0 -0 -0 -0 -0 -0 -0 -0 -0 -0 -0 -0 -0 -0 -0 -0 -0 -0 -0 -0 -0 -0 -0 -0
-113 -0 -0 -0 -0 -0 -0 -0 -0 -0 -0 -0 -0 -0 -0 -0 -0 -0 -0 -0 -0 -0 -0 -0 -0 -0 -0 -0 -0 -0 -0 -0 -0 -0 -0 -0 -0 -0 -0 -0 -0 -0 -0
-8 -0 -0 -0 -0 -0 -0 -0 -0 -0 -0 -0 -0 -0 -0 -0 -0 -0 -0 -0 -0 -0 -0 -0 -0 -0 -0 -0 -0 -0 -0 -0 -0 -0 -0 -0 -0 -0 -0 -0 -0 -0 -0
-75 -0 -0 -0 -0 -0 -0 -0 -0 -0 -0 -0 -0 -0 -0 -0 -0 -0 -0 -0 -0 -0 -0 -0 -0 -0 -0 -0 -0 -0 -0 -0 -0 -0 -0 -0 -0 -0 -0 -0 -0 -0 -0
-0 -0 -0 -0 -0 -0 -0 -0 -0 -0 -0 -0 -0 -0 -0 -0 -0 -0 -0 -0 -0 -0 -0 -0 -0 -0 -0 -0 -0 -0 -0 -0 -0 -0 -0 -0 -0 -0 -0 -0 -0 -0 -0
-0 -0 -0 -0 -0 -0 -0 -0 -0 -0 -0 -0 -0 -0 -0 -0 -0 -0 -0 -0 -0 -0 -0 -0 -0 -0 -0 -0 -0 -0 -0 -0 -0 -0 -0 -0 -0 -0 -0 -0 -0 -0 -0
-0 -0 -0 -0 -0 -0 -0 -0 -0 -0 -0 -0 -0 -0 -0 -0 -0 -0 -0 -0 -0 -0 -0 -0 -0 -0 -0 -0 -0 -0 -0 -0 -0 -0 -0 -0 -0 -0 -0 -0 -0 -0 -0
-0 -0 -0 -0 -0 -0 -0 -0 -0 -0 -0 -0 -0 -0 -0 -0 -0 -0 -0 -0 -0 -0 -0 -0 -0 -0 -0 -0 -0 -0 -0 -0 -0 -0 -0 -0 -0 -0 -0 -0 -0 -0 -0
-0 -0 -1 -0 -0 -0 -0 -0 -0 -0 -0 -0 -0 -0 -0 -0 -0 -0 -0 -0 -0 -0 -0 -0 -0 -0 -0 -0 -0 -0 -0 -0 -0 -0 -0 -0 -0 -0 -0 -0 -0 -0 -0
-0 -0 -18 -0 -0 -0 -0 -0 -0 -0 -0 -0 -0 -0 -0 -0 -0 -0 -0 -0 -0 -0 -0 -0 -0 -0 -0 -0 -0 -0 -0 -0 -0 -0 -0 -0 -0 -0 -0 -0 -0 -0 -0
-44 -0 -0 -0 -0 -0 -0 -0 -0 -0 -0 -0 -0 -0 -0 -0 -0 -0 -0 -0 -0 -0 -0 -0 -0 -0 -0 -0 -0 -0 -0 -0 -0 -0 -0 -0 -0 -0 -0 -0 -0 -0 -0
-0 -0 -0 -0 -0 -0 -0 -0 -0 -0 -0 -0 -0 -0 -0 -0 -0 -0 -0 -0 -0 -0 -0 -0 -0 -0 -0 -0 -0 -0 -0 -0 -0 -0 -0 -0 -0 -0 -0 -0 -0 -0 -0
Wind_Speed
6 10 12 13 12 9 7 6 5 4 9 7 7 8 9 10 10 10 12 13 16 17 19 20 22 22 22 21 19 18 18 20 21 22 22 22 22 23 23 23 22 22 20
11 13 14 14 11 8 6 3 4 6 5 5 6 8 9 10 11 12 13 15 17 18 19 21 21 22 22 21 19 18 19 21 23 24 23 23 23 23 23 21 15 11 13
12 12 15 14 10 7 5 4 3 4 5 5 6 8 9 10 11 12 14 16 17 18 20 21 22 22 22 22 20 19 20 23 24 25 24 23 24 24 25 26 22 19 18
11 11 11 12 9 7 5 2 1 3 3 4 6 8 9 11 12 13 15 16 17 18 20 21 22 23 23 22 21 21 21 23 25 26 26 25 22 26 26 28 28 26 24
11 8 10 10 8 6 3 1 1 2 3 4 6 8 9 10 11 13 14 16 17 18 20 21 22 23 23 22 21 21 22 23 24 26 26 26 27 27 26 25 25 26 26
9 9 11 9 7 4 3 2 1 2 3 5 6 7 8 10 11 12 14 15 17 18 20 21 22 22 23 23 22 21 22 23 23 24 25 27 27 27 27 25 23 23 23
9 9 9 8 6 4 3 3 1 1 3 4 6 7 8 9 10 11 13 14 16 18 20 21 21 22 23 23 22 21 21 22 23 24 25 26 27 27 27 27 27 25 24
9 9 8 8 6 5 5 4 2 1 1 3 5 6 8 9 10 11 13 15 16 17 18 20 20 21 22 23 22 21 21 22 22 23 24 25 26 27 27 27 26 26 26
9 9 8 8 7 6 6 5 4 4 1 1 3 5 7 9 10 11 13 14 15 17 18 20 20 20 21 22 22 22 22 22 22 22 23 25 26 27 27 26 27 27 27
9 9 10 9 9 10 9 7 6 5 3 1 2 3 5 8 9 10 11 12 14 16 18 19 20 20 20 21 22 21 22 22 21 22 23 24 26 27 26 26 26 27 27
11 11 12 11 11 10 10 8 8 5 4 2 0 2 4 6 7 9 11 12 14 16 18 19 19 19 20 21 21 21 21 22 21 22 23 24 25 26 26 26 26 26 26
14 13 13 13 12 12 12 10 9 8 5 3 2 3 3 5 7 8 11 13 14 16 18 19 19 19 20 20 20 20 21 21 21 21 22 23 24 25 25 26 26 27 27
18 16 15 15 14 13 13 12 10 8 5 6 5 5 5 5 7 8 10 12 14 15 16 18 19 19 20 20 20 19 20 21 21 21 22 23 23 24 25 26 26 26 27
22 18 18 18 16 15 13 12 10 8 7 7 7 5 4 4 6 8 10 11 13 14 16 16 17 18 19 20 19 19 19 19 20 21 22 22 23 23 25 26 26 26 27
24 21 20 21 19 17 16 13 11 9 9 8 6 4 2 4 6 8 10 12 13 14 15 16 17 17 18 19 19 18 17 18 19 20 21 21 22 23 24 25 26 26 27
25 25 22 22 21 19 18 15 12 11 9 7 5 3 3 4 6 7 9 11 12 14 14 15 16 17 17 17 18 18 18 16 18 19 20 21 22 23 24 25 27 27 27
24 26 25 24 22 21 20 18 15 11 9 6 4 4 3 3 5 7 8 10 12 13 14 15 16 17 18 16 17 17 17 17 17 18 19 21 21 23 24 25 27 27 28
26 26 27 26 24 22 20 18 16 13 10 7 5 3 3 3 4 6 8 9 11 13 14 15 15 18 18 17 16 17 16 17 17 18 20 21 21 22 24 27 28 28 28
33 29 28 27 25 23 21 19 17 14 12 9 6 4 3 2 4 6 7 9 11 13 14 15 16 17 19 18 16 16 16 16 18 18 20 22 23 23 25 28 30 29 30
43 34 30 29 28 24 22 19 17 15 13 10 8 6 4 3 4 5 6 8 10 12 14 15 15 18 19 17 17 16 16 16 20 18 20 21 23 24 27 28 30 30 31
40 38 33 30 30 26 23 21 19 17 15 13 11 8 6 5 4 5 6 8 10 11 13 13 15 18 20 17 16 17 16 16 20 18 19 21 25 26 28 29 31 31 32
25 36 35 33 31 27 25 23 20 17 16 13 11 9 8 5 4 4 5 7 9 11 13 15 14 16 19 21 18 18 19 18 19 19 19 21 25 27 30 31 31 32 33
34 31 40 37 32 27 25 22 19 16 14 14 12 11 10 7 5 5 7 8 10 12 13 15 16 16 17 20 20 18 19 21 23 20 20 22 27 30 31 32 31 31 31
34 32 45 36 37 29 26 25 23 22 19 17 13 12 9 6 5 6 8 9 10 12 14 15 17 17 18 18 19 20 19 19 23 23 21 24 30 32 31 33 32 32 32
27 26 31 25 32 40 28 26 24 22 20 14 12 10 8 7 7 7 9 10 11 12 13 14 16 17 17 18 19 19 20 20 20 23 27 28 32 33 32 35 32 32 34
25 27 24 20 24 34 34 29 26 22 19 16 14 13 11 11 9 10 8 10 10 10 11 13 15 16 17 18 19 20 21 24 25 26 29 34 36 30 36 28 31 34 34
Wind_Direction
159 132 125 121 118 111 101 85 70 43 62 50 40 22 15 13 12 10 9 11 19 24 29 31 35 35 32 17 355 341 340 353 356 12 23 18 16 9 7 2 359 346 323
134 131 127 124 119 115 105 83 71 70 48 42 34 20 20 22 23 22 21 28 30 29 30 32 33 29 22 10 356 353 353 4 21 29 29 20 13 4 348 326 65 101 82
133 133 129 126 123 118 111 97 81 54 51 41 24 23 27 31 30 29 30 35 35 32 32 34 35 33 25 19 12 2 2 25 28 34 44 43 34 31 25 27 64 68 72
134 137 135 127 125 117 113 115 75 57 46 28 29 32 35 37 36 35 36 35 34 33 33 37 36 36 29 25 20 12 14 26 29 35 54 62 80 54 49 29 44 50 50
138 147 141 133 129 123 129 152 80 58 46 40 37 39 38 35 34 34 35 35 34 34 35 37 37 34 33 28 20 15 23 25 27 36 47 57 46 46 44 53 48 45 45
146 151 144 140 139 147 164 191 135 65 56 55 53 45 40 36 35 34 33 33 33 34 38 39 35 36 40 34 24 18 27 24 26 27 28 33 45 42 48 53 56 58 50
148 159 155 157 156 174 189 204 197 112 68 63 58 50 43 39 35 31 31 30 31 37 37 35 34 38 41 33 24 20 27 25 27 28 32 39 31 40 39 43 45 50 47
156 169 167 171 178 202 209 213 200 178 97 66 61 54 50 43 40 34 34 35 34 31 28 32 34 37 35 30 24 27 31 26 26 27 34 31 36 31 30 37 40 40 42
175 180 185 191 204 214 218 217 217 224 193 78 59 51 50 48 45 42 37 33 28 26 27 30 35 35 32 29 29 38 32 25 26 26 33 38 29 27 30 36 32 36 36
188 194 199 207 216 223 225 221 224 223 225 194 72 54 45 44 42 35 24 19 19 23 26 29 31 30 29 32 41 37 32 26 25 26 33 31 25 27 32 35 30 30 31
207 197 205 208 214 220 221 221 223 220 221 204 182 56 42 33 27 22 17 18 20 23 26 28 27 27 29 33 39 39 33 30 27 23 23 24 26 28 30 31 28 27 29
211 206 205 209 214 215 223 220 223 229 219 210 232 278 326 9 17 18 24 27 28 31 29 30 28 26 28 32 36 40 33 31 26 22 21 22 27 27 25 23 23 24 25
218 215 210 212 217 216 219 220 223 223 216 238 256 272 295 334 6 20 25 23 27 30 28 27 27 28 28 29 32 40 39 35 30 26 23 23 25 24 21 18 18 19 18
218 218 218 218 217 220 217 217 214 217 226 240 254 274 315 351 12 20 32 29 30 28 28 26 25 26 30 29 33 37 36 35 33 31 26 24 23 21 19 18 17 17 15
221 220 220 221 222 220 219 215 212 219 233 241 253 278 356 4 18 22 31 32 29 28 25 23 23 23 26 29 31 33 37 35 32 28 26 23 20 17 14 12 11 10 7
222 222 221 223 224 221 221 218 218 226 228 234 247 271 315 349 19 27 33 26 24 24 20 15 17 19 19 24 27 25 27 31 26 24 23 20 18 13 12 9 5 5 4
220 220 221 223 222 221 222 226 225 222 223 223 232 264 305 347 6 20 24 22 22 15 19 13 11 10 8 18 19 21 20 23 22 21 19 18 15 11 9 6 1 0 360
222 218 220 224 222 222 221 225 225 225 223 225 233 254 291 328 354 7 14 16 16 11 9 7 5 2 2 8 11 11 15 15 14 17 13 14 16 11 7 0 356 357 357
232 222 218 222 221 220 222 226 226 228 232 234 236 249 278 317 339 356 5 11 11 1 359 4 6 4 360 360 4 6 11 10 7 9 6 6 4 2 360 356 352 352 350
231 226 219 222 223 221 223 225 228 231 236 239 242 250 266 297 324 349 4 10 7 4 356 356 0 0 359 359 3 5 6 8 359 4 5 5 3 2 356 355 352 350 348
242 239 219 220 223 218 219 222 226 227 233 241 248 252 263 279 311 340 358 4 3 2 356 357 356 350 356 353 350 349 353 356 358 10 10 4 359 359 355 353 352 350 347
245 246 240 222 221 220 221 226 229 227 237 240 247 256 265 277 302 338 357 357 0 357 354 351 352 344 347 350 340 336 333 335 341 349 356 355 351 352 350 349 348 348 347
244 247 241 237 222 221 221 222 226 231 233 243 247 256 267 279 305 334 344 346 347 344 343 344 346 344 338 340 347 337 330 325 332 337 337 341 339 342 343 343 343 345 346
252 248 242 250 238 226 220 222 220 230 230 243 242 254 263 281 309 325 333 339 344 340 338 336 335 338 334 338 338 340 341 338 329 329 334 333 332 334 337 337 338 338 339
248 245 244 250 238 236 220 220 222 228 239 234 238 241 258 282 306 324 331 329 338 340 338 339 337 338 339 339 341 338 340 340 337 330 325 327 328 330 331 329 335 335 334
247 246 246 250 243 243 244 229 226 228 232 231 237 245 258 279 299 310 338 328 340 339 345 345 346 346 346 349 346 342 338 332 330 330 325 322 321 329 328 334 333 334 334